TimeCST,TemperatureF,Dew PointF,Humidity,Sea Level PressureIn,VisibilityMPH,Wind Direction,Wind SpeedMPH,Gust SpeedMPH,PrecipitationIn,Events,Conditions,WindDirDegrees,DateUTC
12:15 AM,26.6,15.8,64,30.18,10.0,South,5.8,-,N/A,,Clear,170,2013-02-02 06:15:00
12:36 AM,26.6,15.8,64,30.17,10.0,South,5.8,-,N/A,,Clear,180,2013-02-02 06:36:00
12:55 AM,28.4,17.6,64,30.17,10.0,South,5.8,-,N/A,,Clear,190,2013-02-02 06:55:00
1:35 AM,30.2,17.6,60,30.16,10.0,South,5.8,-,N/A,,Clear,190,2013-02-02 07:35:00
1:55 AM,30.2,17.6,60,30.16,10.0,South,5.8,-,N/A,,Clear,180,2013-02-02 07:55:00
2:16 AM,30.2,15.8,55,30.16,10.0,South,3.5,-,N/A,,Clear,190,2013-02-02 08:16:00
2:35 AM,28.4,17.6,64,30.16,10.0,Calm,Calm,-,N/A,,Clear,0,2013-02-02 08:35:00
3:16 AM,26.6,17.6,69,30.15,10.0,Calm,Calm,-,N/A,,Clear,0,2013-02-02 09:16:00
3:35 AM,26.6,15.8,64,30.15,10.0,Calm,Calm,-,N/A,,Clear,0,2013-02-02 09:35:00
3:55 AM,26.6,17.6,69,30.14,10.0,Calm,Calm,-,N/A,,Clear,0,2013-02-02 09:55:00
4:35 AM,26.6,15.8,64,30.14,10.0,Calm,Calm,-,N/A,,Clear,0,2013-02-02 10:35:00
4:55 AM,26.6,15.8,64,30.14,10.0,Calm,Calm,-,N/A,,Clear,0,2013-02-02 10:55:00
5:15 AM,24.8,17.6,74,30.14,10.0,Calm,Calm,-,N/A,,Clear,0,2013-02-02 11:15:00
5:36 AM,26.6,17.6,69,30.14,10.0,Calm,Calm,-,N/A,,Clear,0,2013-02-02 11:36:00
6:55 AM,26.6,17.6,69,30.15,10.0,SSW,3.5,-,N/A,,Scattered Clouds,210,2013-02-02 12:55:00
7:15 AM,26.6,17.6,69,30.16,10.0,Calm,Calm,-,N/A,,Scattered Clouds,0,2013-02-02 13:15:00
7:35 AM,26.6,15.8,64,30.16,10.0,Calm,Calm,-,N/A,,Clear,0,2013-02-02 13:35:00
8:15 AM,30.2,19.4,64,30.18,10.0,SW,4.6,-,N/A,,Partly Cloudy,230,2013-02-02 14:15:00
8:35 AM,33.8,21.2,60,30.18,10.0,SW,4.6,-,N/A,,Mostly Cloudy,230,2013-02-02 14:35:00
8:55 AM,35.6,21.2,56,30.18,10.0,SW,3.5,-,N/A,,Mostly Cloudy,230,2013-02-02 14:55:00
9:35 AM,39.2,23.0,52,30.19,10.0,SW,6.9,-,N/A,,Mostly Cloudy,230,2013-02-02 15:35:00
10:15 AM,41.0,24.8,53,30.22,10.0,WNW,11.5,17.3,N/A,,Overcast,300,2013-02-02 16:15:00
10:35 AM,41.0,23.0,49,30.23,10.0,NW,11.5,-,N/A,,Mostly Cloudy,320,2013-02-02 16:35:00
10:55 AM,42.8,24.8,49,30.24,10.0,NNW,8.1,-,N/A,,Clear,330,2013-02-02 16:55:00
11:35 AM,44.6,24.8,46,30.22,10.0,Calm,Calm,-,N/A,,Clear,0,2013-02-02 17:35:00
11:55 AM,46.4,24.8,43,30.22,10.0,WNW,3.5,-,N/A,,Clear,290,2013-02-02 17:55:00
12:35 PM,48.2,26.6,43,30.20,10.0,NW,4.6,-,N/A,,Clear,320,2013-02-02 18:35:00
12:55 PM,48.2,26.6,43,30.20,10.0,North,3.5,-,N/A,,Clear,360,2013-02-02 18:55:00
1:15 PM,50.0,28.4,43,30.19,10.0,West,6.9,-,N/A,,Clear,260,2013-02-02 19:15:00
1:36 PM,51.8,28.4,41,30.19,10.0,WNW,9.2,-,N/A,,Clear,290,2013-02-02 19:36:00
1:55 PM,51.8,30.2,44,30.18,10.0,WNW,10.4,-,N/A,,Clear,300,2013-02-02 19:55:00
2:15 PM,51.8,28.4,41,30.18,10.0,WNW,6.9,-,N/A,,Clear,290,2013-02-02 20:15:00
2:55 PM,51.8,28.4,41,30.18,10.0,NW,8.1,-,N/A,,Clear,310,2013-02-02 20:55:00
3:15 PM,51.8,28.4,41,30.18,10.0,WNW,9.2,-,N/A,,Clear,300,2013-02-02 21:15:00
3:35 PM,51.8,28.4,41,30.18,10.0,WNW,6.9,-,N/A,,Clear,300,2013-02-02 21:35:00
3:55 PM,51.8,28.4,41,30.18,10.0,West,11.5,-,N/A,,Clear,270,2013-02-02 21:55:00
4:15 PM,51.8,28.4,41,30.19,10.0,WNW,11.5,17.3,N/A,,Clear,290,2013-02-02 22:15:00
4:55 PM,50.0,28.4,43,30.20,10.0,WNW,10.4,-,N/A,,Clear,290,2013-02-02 22:55:00
5:15 PM,48.2,28.4,46,30.20,10.0,WNW,10.4,-,N/A,,Clear,300,2013-02-02 23:15:00
5:35 PM,48.2,28.4,46,30.20,10.0,West,4.6,-,N/A,,Clear,280,2013-02-02 23:35:00
5:56 PM,46.4,28.4,50,30.20,10.0,West,4.6,-,N/A,,Clear,280,2013-02-02 23:56:00
6:15 PM,44.6,28.4,53,30.21,10.0,West,4.6,-,N/A,,Clear,260,2013-02-03 00:15:00
6:35 PM,42.8,28.4,57,30.20,10.0,SW,4.6,-,N/A,,Clear,230,2013-02-03 00:35:00
6:55 PM,42.8,28.4,57,30.20,10.0,SW,4.6,-,N/A,,Clear,220,2013-02-03 00:55:00
7:16 PM,42.8,28.4,57,30.19,10.0,SW,6.9,-,N/A,,Clear,220,2013-02-03 01:16:00
7:35 PM,41.0,28.4,61,30.19,10.0,SW,5.8,-,N/A,,Clear,230,2013-02-03 01:35:00
7:55 PM,41.0,28.4,61,30.19,10.0,SW,5.8,-,N/A,,Clear,230,2013-02-03 01:55:00
8:16 PM,41.0,28.4,61,30.20,10.0,WSW,4.6,-,N/A,,Clear,240,2013-02-03 02:16:00
8:35 PM,-9999,-9999,N/A,30.19,10.0,SW,4.6,-,N/A,,Clear,230,2013-02-03 02:35:00
8:55 PM,39.2,26.6,61,30.19,10.0,SW,5.8,-,N/A,,Clear,230,2013-02-03 02:55:00
9:15 PM,39.2,28.4,65,30.19,10.0,SW,6.9,-,N/A,,Clear,230,2013-02-03 03:15:00
9:35 PM,39.2,26.6,61,30.19,10.0,WSW,5.8,-,N/A,,Clear,250,2013-02-03 03:35:00
9:55 PM,39.2,26.6,61,30.19,10.0,WSW,8.1,-,N/A,,Clear,240,2013-02-03 03:55:00
10:15 PM,39.2,26.6,61,30.19,10.0,WSW,8.1,-,N/A,,Clear,240,2013-02-03 04:15:00
10:55 PM,39.2,26.6,61,30.19,10.0,SW,8.1,-,N/A,,Clear,230,2013-02-03 04:55:00
11:15 PM,37.4,26.6,65,30.19,10.0,SW,8.1,-,N/A,,Clear,230,2013-02-03 05:15:00
11:55 PM,37.4,26.6,65,30.19,10.0,SW,6.9,-,N/A,,Clear,230,2013-02-03 05:55:00